Torna al catalogo

ARIANE 42P+ DEB

LostHEO
NORAD 34193·DEBRIS·🇫🇷 France

Lanciato Oct 28, 1992 da Guiana Space Centre

Loading…

Prossimi Passaggi (prossime 24 ore)

TLE

ObsoletoSource: Space-Track

Epoca: Jun 24, 2024, 01:34 UTC

1 34193U 92072Z   24176.06529847  .00000372  00000-0  81536-3 0  9999
2 34193   8.5632  61.6846 6516084 238.1465  42.3256  3.18973625251808

Traccia ARIANE 42P+ DEB in tempo reale con AllMySat

Download on the App Store